Weather observations for the past three days for
Oak Ridge
Imperial (Metric)
Date Time (edt) Wind (mph) Vis. (mi.) Weather Sky Cond. Temperature (ºF) Relative Humidity Wind Chill (°F) Heat Index (°F) Pressure Precipitation (in)
Air Dwpt 6 hour altimeter (in) sea level (mb) 1 hr 3 hr 6 hr
Max. Min.
13 02:53 Calm 10.00 A Few Clouds FEW050 66 62.1 87% 29.99 1014.2
13 01:53 Calm 10.00 Fair CLR 66.9 62.1 81 66.9 84% 30 1014.7
13 00:53 Calm 10.00 A Few Clouds FEW060 69.1 63 81% 30.02 1015.1
12 23:53 Calm 10.00 Fair CLR 69.1 63 81% 30.02 1015.2
12 22:53 Calm 10.00 Fair CLR 70 64 82% 30.02 1015.4
12 21:53 Calm 10.00 Fair CLR 72 64 76% 30.01 1015.0
12 20:53 Calm 10.00 Fair CLR 75 64 69% 77 30 1014.8
12 19:53 Calm 10.00 Fair CLR 81 59 84.9 80.1 47% 81 30 1014.6
12 18:53 W 3 10.00 Fair CLR 82.9 55.9 40% 82 29.99 1014.5
12 17:53 W 5 10.00 Fair CLR 84 59 43% 84 30 1014.6
12 16:53 Calm 10.00 Fair CLR 84 61 46% 84 30 1014.7
12 15:53 W 5 10.00 Fair CLR 82.9 59 44% 83 30.01 1015.1
12 14:53 Calm 10.00 Fair CLR 82.9 59 44% 83 30.02 1015.4
12 13:53 Calm 10.00 Fair CLR 80.1 57.9 81 61 47% 81 30.04 1015.9
12 12:53 Calm 10.00 Fair CLR 78.1 57 48% 79 30.05 1016.5
12 11:53 Vrbl 3 10.00 Fair CLR 75.9 59 56% 78 30.06 1016.9
12 10:53 E 6 10.00 Fair CLR 71.1 57 61% 30.07 1017.2
12 09:53 Vrbl 3 10.00 Fair CLR 69.1 57 66% 30.07 1017.1
12 08:53 Calm 10.00 Fair CLR 64.9 55.9 73% 30.06 1016.9
12 07:53 Calm 10.00 Fair CLR 61 55 61 57 81% 30.06 1016.8
12 06:53 Calm 10.00 Fair CLR 57.9 54 87% 30.05 1016.5
12 05:53 Calm 10.00 Fair CLR 57.9 53.1 84% 30.03 1015.9
12 04:53 Calm 10.00 Fair CLR 57.9 53.1 84% 30.02 1015.5
12 03:53 Calm 10.00 Fair CLR 59 53.1 81% 30.01 1015.2
12 02:53 Calm 10.00 Fair CLR 60.1 53.1 78% 30.02 1015.3
12 01:53 Calm 10.00 Fair CLR 61 54 75.9 61 78% 30.02 1015.6
12 00:53 Calm 10.00 Fair CLR 62.1 54 75% 30.02 1015.5
11 23:53 Calm 10.00 Fair CLR 63 54 73% 30.02 1015.5
11 22:53 Calm 10.00 Fair CLR 64.9 54 68% 30.01 1015.1
11 21:53 Calm 10.00 Fair CLR 69.1 52 55% 29.99 1014.5
11 20:53 Calm 10.00 Fair CLR 73 50 44% 29.97 1013.8
11 19:53 Calm 10.00 Fair CLR 75.9 48.9 81 75.9 39% 78 29.95 1013.2
11 17:53 Vrbl 3 10.00 Fair CLR 81 53.1 38% 80 29.95 1013.0
11 16:53 Vrbl 3 10.00 Fair CLR 79 54 42% 79 29.95 1013.0
11 15:53 Vrbl 6 10.00 Fair CLR 78.1 55 45% 79 29.95 1013.2
11 14:53 Vrbl 3 10.00 Fair CLR 79 55.9 45% 80 29.96 1013.4
11 13:53 Calm 10.00 Partly Cloudy SCT046 77 55.9 77 59 48% 79 29.97 1013.7
11 12:53 Calm 10.00 Partly Cloudy SCT042 75 54 48% 78 29.98 1014.2
11 11:53 Vrbl 3 10.00 Fair CLR 73 55 53% 29.99 1014.5
11 10:53 Vrbl 5 10.00 Fair CLR 70 55 59% 30 1014.6
11 09:53 Vrbl 6 10.00 Fair CLR 68 55 63% 30 1014.9
11 07:53 Calm 10.00 Fair CLR 59 54 63 57.9 83% 29.99 1014.5
11 06:53 Calm 10.00 Fair CLR 57.9 54 87% 29.98 1014.1
11 05:53 Calm 10.00 Fair CLR 57.9 55 90% 29.96 1013.6
11 04:53 Calm 10.00 Fair CLR 60.1 55 84% 29.96 1013.2
11 03:53 Calm 10.00 Fair CLR 61 55 81% 29.95 1012.9
11 02:53 Calm 10.00 Fair CLR 62.1 55 78% 29.93 1012.2
11 01:53 Calm 10.00 Fair CLR 63 55.9 78.1 63 78% 29.94 1012.5
11 00:53 Calm 10.00 Fair CLR 63 55.9 78% 29.93 1012.3
10 23:53 Calm 10.00 Fair CLR 64.9 55.9 73% 29.92 1012.1
10 22:53 Calm 10.00 Fair CLR 69.1 55 61% 29.91 1011.7
10 21:53 Calm 10.00 Fair CLR 69.1 55 61% 29.89 1011.1
10 20:53 Calm 10.00 Fair CLR 72 54 53% 29.87 1010.3
10 19:53 Calm 10.00 Fair CLR 78.1 51.1 82.9 78.1 39% 79 29.85 1009.7
10 18:53 Vrbl 5 10.00 Fair CLR 80.1 50 35% 80 29.84 1009.4
10 17:53 W 5 10.00 Partly Cloudy SCT075 79 48.9 35% 79 29.84 1009.5
10 16:53 Vrbl 7 G 20 10.00 Fair CLR 81 46.9 30% 80 29.85 1009.6
10 15:53 NW 6 G 16 10.00 A Few Clouds FEW075 81 46.9 30% 80 29.85 1009.7
10 14:53 Vrbl 5 10.00 A Few Clouds FEW075 82 46 28% 80 29.86 1009.9
10 13:53 W 9 G 21 10.00 A Few Clouds FEW090 81 46.9 82 62.1 30% 80 29.88 1010.3
10 12:53 W 8 10.00 A Few Clouds FEW080 79 54 42% 79 29.88 1010.6
10 11:53 Calm 10.00 Fair CLR 77 57 50% 79 29.9 1011.2
10 10:53 Calm 10.00 Fair CLR 73 57.9 59% 29.91 1011.6
10 09:53 Calm 10.00 Fair CLR 69.1 57.9 68% 29.91 1011.8
10 08:53 Calm 10.00 Fair CLR 64.9 57.9 78% 29.92 1012.1
10 07:53 Calm 10.00 Fair CLR 62.1 59 64 57.9 90% 29.91 1011.8
10 06:53 Calm 8.00 Fair CLR 57.9 57 97% 29.9 1011.6
10 05:53 Calm 10.00 Fair CLR 59 57.9 96% 29.88 1011.1
10 04:53 Calm 10.00 Fair CLR 60.1 57.9 93% 29.88 1010.7
10 03:53 Calm 10.00 Fair CLR 61 59 93% 29.88 1010.5
Date Time (edt) Wind (mph) Vis. (mi.) Weather Sky Cond. Air Dwpt Max. Min. Relative Humidity Wind Chill (°F) Heat Index (°F) altimeter (in) sea level (mb) 1 hr 3 hr 6 hr
6 hour
Temperature (ºF) Pressure Precipitation (in)